Regional Weather Roundup
Issued by NWS

Home | Current Version | Previous Version | Text Only | Print | Product List | Glossary Off
Versions: 1 2 3 4 5 6 7 8 9 10 11 12 13 14 15 16 17 18 19 20 21 22 23 24 25 26 27 28 29 30 31 32 33 34 35 36 37 38 39 40 41 42 43 44 45 46 47 48 49 50

000
ASUS45 KABQ 250810
RWRNM
NEW MEXICO REGIONAL WEATHER ROUNDUP
NATIONAL WEATHER SERVICE ALBUQUERQUE NM
200 AM MDT WED APR 25 2018

NOTE: "FAIR" MEANS FEW OR NO CLOUDS BELOW 12,000 FEET AGL WITH NO
       SIGNIFICANT WEATHER OR OBSTRUCTIONS TO VISION.

      THIS PRODUCT IS RELEASED AS TWO VERSIONS.  ONE VERSION NEAR
      THE TOP OF THE HOUR CONTAINING PRELIMINARY DATA FROM ALBUQUERQUE
      AND OTHER STATIONS.  A FINAL VERSION WITH ADDITIONAL DATA IS
      ISSUED ABOUT 10 MINUTES AFTER THE HOUR.

NMZ501-503-504-510>518-250900-
NORTHWEST PLATEAU/NORTHCENTRAL MOUNTAINS

CITY           SKY/WX    TMP DP  RH WIND       PRES   REMARKS
FARMINGTON     FAIR      54  18  24 VRB5      30.15R
LOS ALAMOS     FAIR      42  32  66 S13G21    30.28R
SANTA FE       FAIR      42  31  64 S15       30.25R
TAOS           FAIR      39  26  59 SE8       30.30R WCI  33
ANGEL FIRE     CLOUDY    31  26  80 N12       30.34F WCI  22

$$
NMZ402-403-502-505>509-250900-
WESTCENTRAL MOUNTAINS/SOUTHWEST MOUNTAINS

CITY           SKY/WX    TMP DP  RH WIND       PRES   REMARKS
GALLUP         FAIR      48  16  27 NE3       30.22R
GRANTS         FAIR      49  29  44 S10       30.23S
SILVER CITY    FAIR      59  12  15 NW10      30.12F

$$
NMZ407-409-411-412-250900-
SOUTHERN DESERTS

CITY           SKY/WX    TMP DP  RH WIND       PRES   REMARKS
DEMING         FAIR      57  14  18 CALM      30.06S
LAS CRUCES     FAIR      67  21  17 S9        30.07R
HOLLOMAN AFB   FAIR      58  25  28 NW8       30.06R
ALAMOGORDO     FAIR      59  23  25 W8        30.05R
T OR C         FAIR      59  37  44 N14       30.09R

$$
NMZ519>523-250900-
CENTRAL VALLEYS/CENTRAL HIGHLANDS

CITY           SKY/WX    TMP DP  RH WIND       PRES   REMARKS
ALBUQUERQUE    FAIR      48  35  60 E33G47    30.19R
DOUBLE EAGLE   FAIR      46  33  62 CALM      30.23R
MORIARTY ARPT  CLOUDY    44  33  66 E6        30.33R
CLINES CORNERS CLOUDY    36  29  75 E18G26    30.32F WCI  26
BELEN          FAIR      50  35  56 NW10      30.18R
SOCORRO        FAIR      52  35  52 NW12G20   30.18R

$$
NMZ524>526-539-540-250900-
SOUTHCENTRAL MOUNTAINS

CITY           SKY/WX    TMP DP  RH WIND       PRES   REMARKS
RUIDOSO          N/A     39  36  87 SE16      30.33S WCI  30

$$
NMZ527>531-250900-
NORTHEAST HIGHLANDS/NORTHEAST PLAINS

CITY           SKY/WX    TMP DP  RH WIND       PRES   REMARKS
LAS VEGAS      CLOUDY    35  28  75 NE13      30.35S WCI  26
RATON          CLOUDY    36  25  64 N15       30.35S WCI  27
CLAYTON        CLOUDY    36  33  89 N14       30.35F WCI  27

$$
NMZ532>537-250900-
EASTCENTRAL PLAINS

CITY           SKY/WX    TMP DP  RH WIND       PRES   REMARKS
SANTA ROSA     CLOUDY    44  32  62 NE21G28   30.32S
TUCUMCARI      CLOUDY    45  34  65 NE20      30.34S
CANNON AFB     CLOUDY    42  37  82 NE37      30.30F
CLOVIS AIRPORT CLOUDY    42  35  76 NE30G40   30.29R

$$
NMZ028-029-538-250900-
SOUTHEAST PLAINS

CITY           SKY/WX    TMP DP  RH WIND       PRES   REMARKS
ROSWELL        CLOUDY    50  34  54 N17       30.28R
ARTESIA        CLOUDY    50  36  57 N17G28    30.28R
CARLSBAD       CLOUDY    51  37  58 N24G35    30.23R
HOBBS          CLOUDY    48  37  66 NE33      30.17S


$$




USA.gov is the U.S. government's official web portal to all federal, state and local government web resources and services.